AX317 Weather Reports


time (UTC)temp
C
wind
direction
speed
KPH
gust
KPH
rain 1hr
cm
rain 24hr
cm
rain mn
cm
humidity
%
barometer
mb
20260504150840 18 146 0.0 0.0 0.00 0.00 0.00 37 1005.1
20260504150345 18 271 0.0 0.0 0.00 0.00 0.00 37 1005.4
20260504140340 15 257 0.0 0.0 0.00 0.00 0.00 48 1005.1
20260504130341 13 98 0.0 0.0 0.00 0.00 0.00 53 1006.4
20260504110339 6 280 0.0 0.0 0.00 0.00 0.00 79 1007.1
20260504100339 4 239 0.0 0.0 0.00 0.00 0.00 89 1007.1
20260504081839 3 290 0.0 0.0 0.00 0.00 0.00 87 1007.1
20260504081340 3 290 0.0 0.0 0.00 0.00 0.00 87 1007.1
20260504080839 3 9 0.0 0.0 0.00 0.00 0.00 87 1007.1
20260504080339 3 270 0.0 0.0 0.00 0.00 0.00 87 1007.1
20260504070339 3 326 0.0 0.0 0.00 0.00 0.00 86 1007.1
20260504050339 3 265 0.0 0.0 0.00 0.00 0.00 79 1007.1
20260504045839 3 294 0.0 0.0 0.00 0.00 0.00 79 1007.5
20260504045339 3 193 0.0 0.0 0.00 0.00 0.00 79 1007.5
20260504044839 3 4 0.0 0.0 0.00 0.00 0.00 79 1007.5
20260504044339 2 322 0.0 0.0 0.00 0.00 0.00 79 1007.5
20260504043839 2 261 0.0 0.0 0.00 0.00 0.00 79 1007.5
20260504043340 2 297 0.0 0.0 0.00 0.00 0.00 79 1007.5
20260504042840 2 287 0.0 0.0 0.00 0.00 0.00 78 1007.5
20260504042342 2 175 0.0 0.0 0.00 0.00 0.00 78 1007.5
20260504041840 2 241 0.0 0.0 0.00 0.00 0.00 78 1007.5
20260504041339 2 288 0.0 0.0 0.00 0.00 0.00 78 1007.5
20260504040840 2 274 0.0 0.0 0.00 0.00 0.00 78 1007.5
20260504040345 2 237 0.0 0.0 0.00 0.00 0.00 78 1007.5
20260504035839 2 257 0.0 0.0 0.00 0.00 0.00 78 1007.5
20260504035339 2 114 0.0 0.0 0.00 0.00 0.00 78 1007.5
20260504034839 2 212 0.0 0.0 0.00 0.00 0.00 78 1007.5
20260504034339 2 260 0.0 0.0 0.00 0.00 0.00 79 1007.1
20260504033839 2 260 0.0 0.0 0.00 0.00 0.00 79 1007.1
20260504033339 2 223 0.0 0.0 0.00 0.00 0.00 79 1007.5
20260504032840 2 235 0.0 0.0 0.00 0.00 0.00 79 1007.5
20260504032340 2 216 0.0 0.0 0.00 0.00 0.00 79 1007.5
20260504031839 2 230 0.0 0.0 0.00 0.00 0.00 79 1007.1
20260504031346 1 293 0.0 0.0 0.00 0.00 0.00 78 1007.1
20260504030839 2 244 0.0 0.0 0.00 0.00 0.00 78 1007.5
20260504030339 2 261 0.0 0.0 0.00 0.00 0.00 77 1007.1
20260504025840 2 250 0.0 0.0 0.00 0.00 0.00 76 1007.5
20260504025349 2 291 0.0 0.0 0.00 0.00 0.00 76 1007.5
20260504024839 2 235 0.0 0.0 0.00 0.00 0.00 75 1007.1
20260504024341 2 300 0.0 0.0 0.00 0.00 0.00 75 1007.1
20260504023840 2 286 0.0 0.0 0.00 0.00 0.00 74 1007.5
20260504023340 2 299 0.0 0.0 0.00 0.00 0.00 74 1007.5
20260504022839 2 280 0.0 0.0 0.00 0.00 0.00 73 1007.5
20260504022339 3 294 0.0 0.0 0.00 0.00 0.00 73 1007.5
20260504021839 3 274 0.0 0.0 0.00 0.00 0.00 72 1007.1
20260504021339 3 300 0.0 0.0 0.00 0.00 0.00 72 1007.1
20260504020840 3 278 0.0 0.0 0.00 0.00 0.00 71 1007.1
20260504020340 3 274 0.0 0.0 0.00 0.00 0.00 70 1007.1
20260504015840 3 286 0.0 0.0 0.00 0.00 0.00 69 1007.1
20260504015340 4 217 0.0 0.0 0.00 0.00 0.00 68 1007.1
20260504014842 4 305 0.0 0.0 0.00 0.00 0.00 67 1007.1
20260504014340 4 277 0.0 0.0 0.00 0.00 0.00 65 1006.8
20260504013839 4 254 0.0 0.0 0.00 0.00 0.00 64 1006.8
20260504013339 4 275 0.0 0.0 0.00 0.00 0.00 61 1006.8
20260504012839 5 286 0.0 0.0 0.00 0.00 0.00 62 1006.8
20260504012339 5 265 0.0 0.0 0.00 0.00 0.00 61 1006.8
20260504011839 5 288 0.0 0.0 0.00 0.00 0.00 60 1006.4
20260504011339 5 254 0.0 0.0 0.00 0.00 0.00 59 1006.4
20260504010839 5 275 0.0 0.0 0.00 0.00 0.00 59 1006.4
20260504010339 6 268 0.0 0.0 0.00 0.00 0.00 58 1006.1
20260504005839 6 284 0.0 0.0 0.00 0.00 0.00 56 1006.1
20260504005339 6 294 0.0 0.0 0.00 0.00 0.00 54 1006.1
20260504004839 6 267 0.0 0.0 0.00 0.00 0.00 53 1006.1
20260504004341 7 269 0.0 0.0 0.00 0.00 0.00 52 1006.1
20260504003841 7 271 0.0 0.0 0.00 0.00 0.00 52 1006.1
20260504003340 7 254 0.0 0.0 0.00 0.00 0.00 50 1005.8
20260504002839 7 250 0.0 0.0 0.00 0.00 0.00 50 1005.8
20260504002340 8 248 0.0 0.0 0.00 0.00 0.00 47 1005.8
20260504001840 8 306 0.0 0.0 0.00 0.00 0.00 47 1005.8
20260504001339 8 283 0.0 0.0 0.00 0.00 0.00 46 1005.8
20260504000839 8 259 0.0 0.0 0.00 0.00 0.00 45 1005.8
20260504000339 8 254 0.0 0.0 0.00 0.00 0.00 44 1005.8
20260503235839 9 317 0.0 0.0 0.00 0.00 0.00 43 1005.4
20260503235339 9 288 0.0 0.0 0.00 0.00 0.00 44 1005.4
20260503234841 9 320 0.0 0.0 0.00 0.00 0.00 43 1005.4
20260503234339 9 309 0.0 0.0 0.00 0.00 0.00 42 1005.4
20260503233839 10 273 0.0 0.0 0.00 0.00 0.00 43 1005.4
20260503233339 10 288 0.0 0.0 0.00 0.00 0.00 43 1005.4
20260503232839 10 332 0.0 0.0 0.00 0.00 0.00 42 1005.4
20260503232339 10 277 0.0 0.0 0.00 0.00 0.00 43 1005.4
20260503231839 10 262 0.0 0.0 0.00 0.00 0.00 43 1005.4
20260503231340 10 297 0.0 0.0 0.00 0.00 0.00 45 1005.4
20260503230840 10 321 0.0 0.0 0.00 0.00 0.00 41 1005.4
20260503230339 10 327 0.0 0.0 0.00 0.00 0.00 41 1005.4
20260503225839 11 304 0.0 0.0 0.00 0.00 0.00 41 1005.4
20260503225339 11 288 0.0 0.0 0.00 0.00 0.00 41 1005.4
20260503224839 11 335 0.0 0.0 0.00 0.00 0.00 41 1005.4
20260503224340 11 34 0.0 0.0 0.00 0.00 0.00 40 1005.4
20260503223841 11 25 0.0 0.0 0.00 0.00 0.00 40 1005.1
20260503223339 11 343 0.0 0.0 0.00 0.00 0.00 40 1005.4
20260503222839 11 269 0.0 0.0 0.00 0.00 0.00 40 1005.1
20260503222339 11 323 0.0 0.0 0.00 0.00 0.00 39 1005.1
20260503221840 11 346 0.0 0.0 0.00 0.00 0.00 39 1005.1
20260503221339 11 283 0.0 0.0 0.00 0.00 0.00 38 1005.1
20260503220841 11 288 0.0 0.0 0.00 0.00 0.00 38 1005.4
20260503220339 11 280 0.0 0.0 0.00 0.00 0.00 38 1005.4
20260503215839 11 348 0.0 0.0 0.00 0.00 0.00 38 1005.1
20260503215340 11 0 0.0 0.0 0.00 0.00 0.00 39 1005.1
20260503214839 11 223 0.0 0.0 0.00 0.00 0.00 39 1005.1
20260503214340 11 217 0.0 0.0 0.00 0.00 0.00 38 1005.1
20260503213840 12 350 0.0 0.0 0.00 0.00 0.00 37 1005.1
20260503213339 11 275 0.0 0.0 0.00 0.00 0.00 38 1005.1
20260503212839 11 358 0.0 0.0 0.00 0.00 0.00 40 1005.1
20260503212339 11 258 0.0 0.0 0.00 0.00 0.00 39 1005.1
20260503211840 11 301 0.0 0.0 0.00 0.00 0.00 41 1005.1
20260503211339 11 343 0.0 0.0 0.00 0.00 0.00 40 1005.1
20260503210839 11 40 0.0 0.0 0.00 0.00 0.00 41 1005.1
20260503210339 11 25 0.0 0.0 0.00 0.00 0.00 40 1005.1
20260503205839 11 343 0.0 0.0 0.00 0.00 0.00 40 1005.1
20260503205339 11 295 0.0 0.0 0.00 0.00 0.00 39 1005.1
20260503204840 11 329 0.0 0.0 0.00 0.00 0.00 41 1005.1
20260503204339 10 324 0.0 0.0 0.00 0.00 0.00 42 1005.1
20260503203839 11 13 0.0 0.0 0.00 0.00 0.00 43 1005.1
20260503203339 11 344 0.0 0.0 0.00 0.00 0.00 42 1005.1
20260503202840 11 359 0.0 0.0 0.00 0.00 0.00 41 1005.1
20260503202343 11 277 0.0 0.0 0.00 0.00 0.00 40 1005.1
20260503201840 11 357 0.0 0.0 0.00 0.00 0.00 38 1005.1
20260503201340 11 291 0.0 0.0 0.00 0.00 0.00 40 1005.1
20260503200839 10 5 0.0 0.0 0.00 0.00 0.00 40 1005.1
20260503200340 10 282 0.0 0.0 0.00 0.00 0.00 39 1005.1
20260503195839 11 281 0.0 0.0 0.00 0.00 0.00 40 1005.1
20260503195340 11 327 0.0 0.0 0.00 0.00 0.00 40 1005.1
20260503194840 11 255 0.0 0.0 0.00 0.00 0.00 39 1005.1
20260503194339 11 69 0.0 0.0 0.00 0.00 0.00 39 1005.1
20260503193839 11 331 0.0 0.0 0.00 0.00 0.00 39 1005.4
20260503193344 10 337 0.0 0.0 0.00 0.00 0.00 39 1005.4
20260503192839 10 338 0.0 0.0 0.00 0.00 0.00 40 1005.1
20260503192341 10 9 0.0 0.0 0.00 0.00 0.00 41 1005.1
20260503191839 11 89 0.0 0.0 0.00 0.00 0.00 40 1005.1
20260503191341 10 0 0.0 0.0 0.00 0.00 0.00 41 1005.1
20260503190840 10 343 0.0 0.0 0.00 0.00 0.00 41 1005.4
20260503190340 10 311 0.0 0.0 0.00 0.00 0.00 42 1005.4
20260503185839 10 36 0.0 0.0 0.00 0.00 0.00 41 1005.4
20260503185339 10 340 0.0 0.0 0.00 0.00 0.00 42 1005.4
20260503184839 10 26 0.0 0.0 0.00 0.00 0.00 43 1005.4
20260503184340 10 305 0.0 0.0 0.00 0.00 0.00 44 1005.4
20260503183839 10 325 0.0 0.0 0.00 0.00 0.00 43 1005.4
20260503182839 10 303 0.0 0.0 0.00 0.00 0.00 42 1005.1
20260503182340 11 359 0.0 0.0 0.00 0.00 0.00 42 1005.1
20260503181840 11 350 0.0 0.0 0.00 0.00 0.00 43 1005.1
20260503181339 11 328 0.0 0.0 0.00 0.00 0.00 42 1005.1
20260503180840 10 277 0.0 0.0 0.00 0.00 0.00 43 1005.1
20260503180340 10 299 0.0 0.0 0.00 0.00 0.00 43 1004.7
20260503175839 10 330 0.0 0.0 0.00 0.00 0.00 42 1004.7
20260503175341 10 243 0.0 0.0 0.00 0.00 0.00 40 1004.7
20260503174839 11 356 0.0 0.0 0.00 0.00 0.00 40 1004.7
20260503174339 11 215 0.0 0.0 0.00 0.00 0.00 40 1004.7
20260503173839 10 322 0.0 0.0 0.00 0.00 0.00 39 1004.7
20260503173339 10 350 0.0 0.0 0.00 0.00 0.00 40 1005.1
20260503172839 10 333 0.0 0.0 0.00 0.00 0.00 40 1004.7
20260503172343 10 2 0.0 0.0 0.00 0.00 0.00 39 1004.7
20260503171840 11 325 0.0 0.0 0.00 0.00 0.00 39 1004.7
20260503171340 11 27 0.0 0.0 0.00 0.00 0.00 37 1004.7
20260503170839 11 328 0.0 0.0 0.00 0.00 0.00 37 1004.7
20260503170339 10 3 0.0 0.0 0.00 0.00 0.00 39 1005.1